| time (UTC) | temp C | wind direction | speed KPH | gust KPH | rain 1hr cm | rain 24hr cm | rain mn cm | humidity % | barometer mb |
| 20260506165636 | 16 | 292 | 0.0 | 9.7 | 0.00 | 2.90 | 0.00 | 61 | 1000.6 |
| 20260506165136 | 16 | 270 | 0.0 | 0.0 | 0.00 | 2.90 | 0.00 | 60 | 1000.4 |
| 20260506164636 | 17 | 180 | 0.0 | 0.0 | 0.00 | 2.90 | 0.00 | 59 | 1000.1 |
| 20260506164135 | 17 | 225 | 0.0 | 3.2 | 0.00 | 2.90 | 0.00 | 58 | 1000.3 |
| 20260506163635 | 17 | 202 | 0.0 | 0.0 | 0.00 | 2.90 | 0.00 | 58 | 1000.2 |
| 20260506163135 | 17 | 225 | 0.0 | 0.0 | 0.00 | 2.90 | 0.00 | 57 | 1000.1 |
| 20260506162634 | 17 | 180 | 0.0 | 1.6 | 0.00 | 2.90 | 0.00 | 57 | 1000.2 |
| 20260506161634 | 18 | 225 | 0.0 | 0.0 | 0.00 | 2.90 | 0.00 | 55 | 1000.2 |
| 20260506161133 | 18 | 225 | 0.0 | 0.0 | 0.00 | 2.90 | 0.00 | 55 | 1000.2 |
| 20260506160633 | 18 | 90 | 0.0 | 4.8 | 0.00 | 2.90 | 0.00 | 55 | 1000.2 |
| 20260506160133 | 18 | 225 | 4.8 | 4.8 | 0.00 | 2.90 | 0.00 | 55 | 1000.1 |
| 20260506155633 | 18 | 292 | 0.0 | 3.2 | 0.00 | 2.90 | 0.00 | 54 | 1000.0 |
| 20260506155132 | 19 | 225 | 3.2 | 9.7 | 0.00 | 2.90 | 0.00 | 53 | 1000.0 |
| 20260506154632 | 19 | 247 | 0.0 | 8.0 | 0.00 | 2.90 | 0.00 | 53 | 1000.0 |
| 20260506154132 | 20 | 202 | 0.0 | 3.2 | 0.00 | 2.90 | 0.00 | 53 | 1000.1 |
| 20260506153631 | 20 | 202 | 0.0 | 0.0 | 0.00 | 2.90 | 0.00 | 53 | 1000.0 |
| 20260506153131 | 20 | 157 | 0.0 | 0.0 | 0.00 | 2.90 | 0.00 | 53 | 999.9 |
| 20260506152631 | 20 | 157 | 0.0 | 0.0 | 0.00 | 2.90 | 0.00 | 54 | 1000.0 |
| 20260506152131 | 19 | 225 | 0.0 | 6.4 | 0.00 | 2.90 | 0.00 | 54 | 999.9 |
| 20260506151630 | 19 | 112 | 6.4 | 6.4 | 0.00 | 2.90 | 0.00 | 54 | 1000.1 |
| 20260506151130 | 19 | 112 | 6.4 | 6.4 | 0.00 | 2.90 | 0.00 | 52 | 999.7 |
| 20260506150630 | 20 | 202 | 0.0 | 9.7 | 0.00 | 2.90 | 0.00 | 52 | 999.7 |
| 20260506150129 | 20 | 247 | 9.7 | 9.7 | 0.00 | 2.90 | 0.00 | 52 | 999.8 |
| 20260506145629 | 20 | 225 | 4.8 | 14.5 | 0.00 | 2.90 | 0.00 | 51 | 1000.0 |
| 20260506145129 | 21 | 225 | 14.5 | 14.5 | 0.00 | 2.90 | 0.00 | 49 | 1000.0 |
| 20260506144629 | 21 | 180 | 4.8 | 8.0 | 0.00 | 2.90 | 0.00 | 48 | 1000.2 |
| 20260506144128 | 22 | 180 | 0.0 | 9.7 | 0.00 | 2.90 | 0.00 | 47 | 999.9 |
| 20260506143628 | 22 | 247 | 9.7 | 9.7 | 0.00 | 2.90 | 0.00 | 47 | 999.9 |
| 20260506143128 | 22 | 202 | 3.2 | 4.8 | 0.00 | 2.90 | 0.00 | 47 | 1000.0 |
| 20260506142627 | 22 | 157 | 0.0 | 4.8 | 0.00 | 2.90 | 0.00 | 48 | 999.9 |
| 20260506142127 | 21 | 112 | 4.8 | 4.8 | 0.00 | 2.90 | 0.00 | 48 | 1000.0 |
| 20260506141627 | 21 | 157 | 0.0 | 4.8 | 0.00 | 2.90 | 0.00 | 47 | 1000.0 |
| 20260506141127 | 22 | 202 | 4.8 | 4.8 | 0.00 | 2.90 | 0.00 | 46 | 999.9 |
| 20260506140626 | 22 | 225 | 0.0 | 9.7 | 0.00 | 2.90 | 0.00 | 45 | 1000.0 |
| 20260506140126 | 23 | 112 | 9.7 | 9.7 | 0.00 | 2.90 | 0.00 | 44 | 1000.1 |
| 20260506135626 | 23 | 90 | 6.4 | 6.4 | 0.00 | 2.90 | 0.00 | 44 | 1000.1 |
| 20260506135125 | 23 | 225 | 0.0 | 3.2 | 0.00 | 2.90 | 0.00 | 44 | 1000.1 |
| 20260506134625 | 22 | 225 | 0.0 | 8.0 | 0.00 | 2.90 | 0.00 | 44 | 1000.0 |
| 20260506134125 | 23 | 180 | 8.0 | 8.0 | 0.00 | 2.90 | 0.00 | 46 | 1000.1 |
| 20260506133625 | 23 | 157 | 8.0 | 8.0 | 0.00 | 2.90 | 0.00 | 46 | 1000.2 |
| 20260506133124 | 23 | 225 | 0.0 | 6.4 | 0.00 | 2.90 | 0.00 | 44 | 1000.1 |
| 20260506132624 | 23 | 202 | 6.4 | 6.4 | 0.00 | 2.90 | 0.00 | 45 | 1000.1 |
| 20260506132124 | 23 | 225 | 0.0 | 9.7 | 0.00 | 2.90 | 0.00 | 46 | 1000.1 |
| 20260506131623 | 23 | 225 | 9.7 | 9.7 | 0.00 | 2.90 | 0.00 | 45 | 1000.4 |
| 20260506131123 | 23 | 180 | 4.8 | 4.8 | 0.00 | 2.90 | 0.00 | 47 | 1000.2 |
| 20260506130623 | 22 | 202 | 0.0 | 4.8 | 0.00 | 2.90 | 0.00 | 47 | 1000.2 |
| 20260506130123 | 22 | 247 | 1.6 | 1.6 | 0.00 | 2.90 | 0.00 | 48 | 1000.2 |
| 20260506125622 | 21 | 247 | 0.0 | 0.0 | 0.00 | 2.90 | 0.00 | 49 | 1000.3 |
| 20260506125122 | 21 | 225 | 0.0 | 3.2 | 0.00 | 2.90 | 0.00 | 49 | 1000.4 |
| 20260506124622 | 21 | 270 | 3.2 | 6.4 | 0.00 | 2.90 | 0.00 | 48 | 1000.4 |
| 20260506124121 | 22 | 225 | 6.4 | 6.4 | 0.00 | 2.90 | 0.00 | 48 | 1000.4 |
| 20260506123621 | 21 | 180 | 0.0 | 12.9 | 0.00 | 2.90 | 0.00 | 48 | 1000.4 |
| 20260506123121 | 22 | 180 | 12.9 | 16.1 | 0.00 | 2.90 | 0.00 | 47 | 1000.4 |
| 20260506122621 | 22 | 225 | 16.1 | 16.1 | 0.00 | 2.90 | 0.00 | 47 | 1000.4 |
| 20260506122120 | 22 | 225 | 12.9 | 12.9 | 0.00 | 2.90 | 0.00 | 48 | 1000.4 |
| 20260506121620 | 21 | 270 | 12.9 | 12.9 | 0.00 | 2.90 | 0.00 | 47 | 1000.2 |
| 20260506121120 | 22 | 270 | 12.9 | 12.9 | 0.00 | 2.90 | 0.00 | 47 | 1000.1 |
| 20260506120619 | 22 | 270 | 8.0 | 8.0 | 0.00 | 2.90 | 0.00 | 48 | 1000.2 |
| 20260506120119 | 22 | 180 | 0.0 | 3.2 | 0.00 | 2.90 | 0.00 | 49 | 1000.2 |
| 20260506115619 | 22 | 202 | 0.0 | 6.4 | 0.00 | 2.90 | 0.00 | 49 | 1000.3 |
| 20260506115119 | 22 | 225 | 4.8 | 6.4 | 0.00 | 2.90 | 0.00 | 49 | 1000.4 |
| 20260506114618 | 21 | 202 | 6.4 | 6.4 | 0.00 | 2.90 | 0.00 | 51 | 1000.4 |
| 20260506114118 | 21 | 270 | 6.4 | 8.0 | 0.00 | 2.90 | 0.00 | 50 | 1000.2 |
| 20260506113618 | 21 | 270 | 6.4 | 6.4 | 0.00 | 2.90 | 0.00 | 52 | 1000.2 |
| 20260506113117 | 20 | 202 | 0.0 | 3.2 | 0.00 | 2.90 | 0.00 | 55 | 1000.3 |
| 20260506112617 | 20 | 247 | 0.0 | 4.8 | 0.00 | 2.90 | 0.00 | 56 | 1000.4 |
| 20260506112117 | 20 | 247 | 3.2 | 3.2 | 0.00 | 2.90 | 0.00 | 57 | 1000.5 |
| 20260506111617 | 18 | 270 | 0.0 | 8.0 | 0.00 | 2.90 | 0.00 | 57 | 1000.7 |
| 20260506111116 | 19 | 225 | 8.0 | 8.0 | 0.00 | 2.90 | 0.00 | 56 | 1000.5 |
| 20260506110616 | 20 | 247 | 4.8 | 9.7 | 0.00 | 2.90 | 0.00 | 55 | 1000.6 |
| 20260506110116 | 20 | 202 | 3.2 | 4.8 | 0.00 | 2.90 | 0.00 | 56 | 1000.6 |
| 20260506105615 | 19 | 270 | 4.8 | 4.8 | 0.00 | 2.90 | 0.00 | 56 | 1000.5 |
| 20260506105115 | 19 | 202 | 3.2 | 11.3 | 0.00 | 2.90 | 0.00 | 55 | 1000.6 |
| 20260506104615 | 20 | 180 | 4.8 | 9.7 | 0.00 | 2.90 | 0.00 | 57 | 1000.6 |
| 20260506104115 | 20 | 225 | 0.0 | 3.2 | 0.00 | 2.90 | 0.00 | 57 | 1000.4 |
| 20260506103614 | 19 | 135 | 3.2 | 6.4 | 0.00 | 2.90 | 0.00 | 59 | 1000.5 |
| 20260506103114 | 18 | 202 | 1.6 | 4.8 | 0.00 | 2.90 | 0.00 | 61 | 1000.6 |
| 20260506102614 | 17 | 112 | 0.0 | 0.0 | 0.00 | 2.90 | 0.00 | 64 | 1000.6 |
| 20260506102113 | 17 | 247 | 0.0 | 3.2 | 0.00 | 2.90 | 0.00 | 64 | 1000.7 |
| 20260506101613 | 17 | 202 | 0.0 | 12.9 | 0.00 | 2.90 | 0.00 | 64 | 1000.8 |
| 20260506101113 | 17 | 247 | 12.9 | 12.9 | 0.00 | 2.90 | 0.00 | 64 | 1000.8 |
| 20260506100613 | 16 | 225 | 0.0 | 0.0 | 0.00 | 2.90 | 0.00 | 63 | 1000.8 |
| 20260506100112 | 17 | 202 | 0.0 | 0.0 | 0.00 | 2.90 | 0.00 | 64 | 1000.9 |
| 20260506095612 | 17 | 202 | 0.0 | 0.0 | 0.00 | 2.90 | 0.00 | 62 | 1001.1 |
| 20260506095112 | 17 | 270 | 0.0 | 3.2 | 0.00 | 2.90 | 0.00 | 62 | 1001.0 |
| 20260506094611 | 17 | 247 | 0.0 | 4.8 | 0.00 | 2.90 | 0.00 | 62 | 1000.9 |
| 20260506094111 | 17 | 180 | 4.8 | 4.8 | 0.00 | 2.90 | 0.00 | 61 | 1000.9 |
| 20260506093611 | 18 | 270 | 4.8 | 9.7 | 0.00 | 2.90 | 0.00 | 60 | 1000.8 |
| 20260506093111 | 18 | 225 | 9.7 | 11.3 | 0.00 | 2.90 | 0.00 | 59 | 1000.8 |
| 20260506092610 | 19 | 202 | 11.3 | 11.3 | 0.00 | 2.90 | 0.00 | 59 | 1000.6 |
| 20260506092110 | 19 | 202 | 11.3 | 11.3 | 0.00 | 2.90 | 0.00 | 59 | 1000.6 |
| 20260506091610 | 19 | 202 | 0.0 | 6.4 | 0.00 | 2.90 | 0.00 | 59 | 1000.5 |
| 20260506091109 | 18 | 157 | 0.0 | 6.4 | 0.00 | 2.90 | 0.00 | 61 | 1000.6 |
| 20260506090609 | 18 | 225 | 0.0 | 0.0 | 0.00 | 2.90 | 0.00 | 62 | 1000.5 |
| 20260506090109 | 17 | 225 | 0.0 | 9.7 | 0.00 | 2.90 | 0.00 | 62 | 1000.3 |
| 20260506085608 | 17 | 225 | 3.2 | 3.2 | 0.00 | 2.90 | 0.00 | 64 | 1000.3 |
| 20260506085108 | 17 | 225 | 0.0 | 9.7 | 0.00 | 2.90 | 0.00 | 64 | 1000.2 |
| 20260506084608 | 17 | 225 | 9.7 | 9.7 | 0.00 | 2.90 | 0.00 | 66 | 1000.3 |
| 20260506084108 | 17 | 247 | 4.8 | 8.0 | 0.00 | 2.90 | 0.00 | 66 | 1000.3 |
| 20260506083607 | 16 | 225 | 6.4 | 8.0 | 0.00 | 2.90 | 0.00 | 67 | 1000.2 |
| 20260506083107 | 16 | 202 | 8.0 | 8.0 | 0.00 | 2.90 | 0.00 | 67 | 1000.2 |
| 20260506082607 | 16 | 202 | 6.4 | 11.3 | 0.00 | 2.90 | 0.00 | 66 | 1000.2 |
| 20260506082107 | 17 | 202 | 11.3 | 11.3 | 0.00 | 2.90 | 0.00 | 67 | 1000.2 |
| 20260506081606 | 17 | 247 | 1.6 | 3.2 | 0.00 | 2.90 | 0.00 | 67 | 1000.1 |
| 20260506081106 | 16 | 202 | 3.2 | 6.4 | 0.00 | 2.90 | 0.00 | 68 | 1000.2 |
| 20260506080606 | 16 | 202 | 4.8 | 8.0 | 0.00 | 2.90 | 0.00 | 69 | 1000.1 |
| 20260506080105 | 16 | 202 | 8.0 | 8.0 | 0.00 | 2.90 | 0.00 | 68 | 1000.0 |
| 20260506073104 | 16 | 202 | 8.0 | 8.0 | 0.00 | 2.90 | 0.00 | 68 | 999.8 |
| 20260506072603 | 17 | 225 | 6.4 | 12.9 | 0.00 | 2.90 | 0.00 | 67 | 999.9 |
| 20260506072103 | 17 | 247 | 12.9 | 12.9 | 0.00 | 2.90 | 0.00 | 67 | 999.8 |
| 20260506071603 | 18 | 112 | 6.4 | 6.4 | 0.00 | 2.90 | 0.00 | 69 | 999.9 |
| 20260506071102 | 17 | 247 | 0.0 | 0.0 | 0.00 | 2.90 | 0.00 | 69 | 1000.0 |
| 20260506070602 | 18 | 225 | 0.0 | 0.0 | 0.00 | 2.90 | 0.00 | 69 | 1000.0 |
| 20260506062100 | 13 | 112 | 0.0 | 0.0 | 0.00 | 2.90 | 0.00 | 88 | 999.9 |
| 20260506061559 | 14 | 180 | 0.0 | 1.6 | 0.00 | 2.90 | 0.00 | 88 | 1000.1 |
| 20260506061059 | 14 | 90 | 1.6 | 9.7 | 0.00 | 2.90 | 0.00 | 89 | 1000.1 |
| 20260506060559 | 14 | 67 | 0.0 | 0.0 | 0.00 | 2.90 | 0.00 | 90 | 1000.0 |
| 20260506051056 | 11 | 225 | 0.0 | 0.0 | 0.00 | 2.90 | 0.00 | 93 | 1000.3 |
| 20260506050555 | 11 | 292 | 0.0 | 0.0 | 0.00 | 2.90 | 0.00 | 93 | 1000.2 |
| 20260506045054 | 11 | 270 | 0.0 | 0.0 | 0.00 | 2.90 | 0.00 | 92 | 1000.1 |
| 20260506044554 | 11 | 270 | 0.0 | 0.0 | 0.00 | 2.90 | 0.00 | 92 | 1000.1 |
| 20260506044054 | 11 | 67 | 0.0 | 0.0 | 0.00 | 2.90 | 0.00 | 92 | 1000.1 |
| 20260506043554 | 11 | 90 | 0.0 | 0.0 | 0.00 | 2.90 | 0.00 | 92 | 1000.1 |
| 20260506043053 | 11 | 90 | 0.0 | 0.0 | 0.00 | 2.90 | 0.00 | 92 | 1000.0 |
| 20260506042553 | 11 | 67 | 0.0 | 0.0 | 0.00 | 2.90 | 0.00 | 92 | 999.9 |
| 20260506042053 | 11 | 67 | 0.0 | 0.0 | 0.00 | 2.90 | 0.00 | 92 | 999.8 |
| 20260506041552 | 11 | 67 | 0.0 | 0.0 | 0.00 | 2.90 | 0.00 | 92 | 999.8 |
| 20260506041052 | 11 | 180 | 0.0 | 0.0 | 0.00 | 2.90 | 0.00 | 92 | 999.8 |
| 20260506040552 | 11 | 180 | 0.0 | 0.0 | 0.00 | 2.90 | 0.00 | 92 | 999.8 |
| 20260506040052 | 11 | 180 | 0.0 | 0.0 | 0.00 | 2.95 | 0.00 | 92 | 999.7 |
| 20260506035551 | 11 | 180 | 0.0 | 0.0 | 0.00 | 2.95 | 0.00 | 92 | 999.9 |
| 20260506035051 | 11 | 180 | 0.0 | 0.0 | 0.00 | 2.95 | 0.00 | 92 | 1000.0 |
| 20260506034551 | 11 | 180 | 0.0 | 0.0 | 0.00 | 2.95 | 0.00 | 92 | 1000.0 |
| 20260506034050 | 11 | 180 | 0.0 | 0.0 | 0.00 | 2.95 | 0.00 | 92 | 999.9 |
| 20260506033550 | 11 | 180 | 0.0 | 0.0 | 0.00 | 2.95 | 0.00 | 92 | 1000.0 |
| 20260506033050 | 11 | 180 | 0.0 | 0.0 | 0.00 | 2.95 | 0.00 | 92 | 1000.0 |
| 20260506032549 | 11 | 180 | 0.0 | 0.0 | 0.00 | 2.95 | 0.00 | 92 | 1000.1 |
| 20260506032049 | 11 | 67 | 0.0 | 0.0 | 0.00 | 2.95 | 0.00 | 92 | 1000.0 |
| 20260506031549 | 11 | 67 | 0.0 | 0.0 | 0.00 | 2.95 | 0.00 | 92 | 1000.0 |
| 20260506031049 | 11 | 67 | 0.0 | 0.0 | 0.00 | 2.95 | 0.00 | 92 | 999.9 |
| 20260506030548 | 11 | 67 | 0.0 | 0.0 | 0.00 | 2.95 | 0.00 | 92 | 1000.2 |
| 20260506030048 | 11 | 67 | 0.0 | 0.0 | 0.00 | 2.95 | 0.00 | 92 | 1000.2 |
| 20260506025548 | 11 | 67 | 0.0 | 0.0 | 0.00 | 2.95 | 0.00 | 92 | 1000.2 |
| 20260506025048 | 11 | 67 | 0.0 | 0.0 | 0.00 | 2.95 | 0.00 | 92 | 1000.3 |
| 20260506024547 | 11 | 67 | 0.0 | 0.0 | 0.00 | 2.95 | 0.00 | 92 | 1000.4 |
| 20260506024047 | 11 | 67 | 0.0 | 0.0 | 0.00 | 2.95 | 0.00 | 92 | 1000.3 |
| 20260506023547 | 11 | 67 | 0.0 | 0.0 | 0.00 | 2.95 | 0.00 | 92 | 1000.4 |
| 20260506023046 | 11 | 67 | 0.0 | 0.0 | 0.00 | 2.95 | 0.00 | 92 | 1000.4 |
| 20260506022546 | 11 | 67 | 0.0 | 0.0 | 0.00 | 2.95 | 0.00 | 92 | 1000.5 |
| 20260506022046 | 11 | 67 | 0.0 | 0.0 | 0.00 | 2.95 | 0.00 | 92 | 1000.5 |
| 20260506021546 | 11 | 67 | 0.0 | 0.0 | 0.00 | 2.95 | 0.00 | 92 | 1000.5 |
| 20260506021045 | 11 | 67 | 0.0 | 0.0 | 0.00 | 2.95 | 0.00 | 92 | 1000.5 |
| 20260506020545 | 11 | 67 | 0.0 | 0.0 | 0.00 | 2.95 | 0.00 | 92 | 1000.5 |
| 20260506020045 | 11 | 67 | 0.0 | 0.0 | 0.00 | 2.95 | 0.00 | 92 | 1000.5 |
| 20260506015544 | 11 | 67 | 0.0 | 0.0 | 0.00 | 2.95 | 0.00 | 92 | 1000.5 |
| 20260506015044 | 11 | 67 | 0.0 | 0.0 | 0.00 | 2.95 | 0.00 | 92 | 1000.5 |
| 20260506014544 | 11 | 67 | 0.0 | 0.0 | 0.00 | 2.95 | 0.00 | 92 | 1000.4 |
| 20260506014044 | 11 | 45 | 0.0 | 0.0 | 0.00 | 2.95 | 0.00 | 91 | 1000.5 |
| 20260506013543 | 11 | 315 | 0.0 | 0.0 | 0.00 | 2.95 | 0.00 | 91 | 1000.7 |
| 20260506013043 | 11 | 315 | 0.0 | 0.0 | 0.00 | 2.95 | 0.00 | 91 | 1000.8 |
| 20260506012543 | 11 | 315 | 0.0 | 0.0 | 0.00 | 2.95 | 0.00 | 91 | 1000.7 |
| 20260506012042 | 11 | 315 | 0.0 | 0.0 | 0.00 | 2.95 | 0.00 | 91 | 1000.7 |
| 20260506011542 | 11 | 292 | 0.0 | 0.0 | 0.00 | 2.95 | 0.00 | 91 | 1000.7 |
| 20260506011042 | 11 | 292 | 0.0 | 0.0 | 0.00 | 2.95 | 0.00 | 91 | 1000.8 |
| 20260506010541 | 11 | 292 | 0.0 | 0.0 | 0.00 | 2.95 | 0.00 | 92 | 1000.8 |
| 20260506010041 | 11 | 292 | 0.0 | 0.0 | 0.00 | 2.95 | 0.00 | 92 | 1000.6 |
| 20260506005541 | 11 | 292 | 0.0 | 0.0 | 0.00 | 2.95 | 0.00 | 92 | 1000.6 |
| 20260506005041 | 11 | 0 | 0.0 | 0.0 | 0.00 | 2.95 | 0.00 | 92 | 1000.6 |
| 20260506004540 | 11 | 0 | 0.0 | 0.0 | 0.00 | 2.95 | 0.00 | 91 | 1000.9 |
| 20260506004040 | 11 | 0 | 0.0 | 0.0 | 0.00 | 2.95 | 0.00 | 91 | 1000.9 |
| 20260506003540 | 11 | 0 | 0.0 | 0.0 | 0.00 | 2.95 | 0.00 | 91 | 1000.9 |
| 20260506003039 | 11 | 0 | 0.0 | 0.0 | 0.00 | 2.95 | 0.00 | 91 | 1000.8 |
| 20260506002539 | 11 | 0 | 0.0 | 0.0 | 0.00 | 2.95 | 0.00 | 91 | 1000.8 |
| 20260506002039 | 11 | 0 | 0.0 | 0.0 | 0.00 | 2.95 | 0.00 | 91 | 1000.8 |
| 20260506001539 | 11 | 0 | 0.0 | 0.0 | 0.00 | 2.95 | 0.00 | 92 | 1000.8 |
| 20260506001038 | 11 | 0 | 0.0 | 0.0 | 0.05 | 2.95 | 0.00 | 91 | 1000.9 |
| 20260506000538 | 11 | 22 | 0.0 | 0.0 | 0.05 | 2.95 | 0.00 | 92 | 1000.9 |
| 20260506000038 | 11 | 22 | 0.0 | 0.0 | 0.05 | 2.95 | 0.00 | 91 | 1000.9 |
| 20260505235537 | 11 | 315 | 0.0 | 0.0 | 0.05 | 2.95 | 0.00 | 91 | 1001.1 |
| 20260505235037 | 11 | 315 | 0.0 | 0.0 | 0.05 | 2.95 | 0.00 | 91 | 1001.1 |
| 20260505234537 | 11 | 315 | 0.0 | 0.0 | 0.05 | 2.95 | 0.00 | 91 | 1001.1 |
| 20260505234037 | 11 | 45 | 0.0 | 0.0 | 0.05 | 2.95 | 0.00 | 91 | 1001.1 |
| 20260505233536 | 11 | 22 | 0.0 | 0.0 | 0.05 | 2.95 | 0.00 | 91 | 1001.1 |
| 20260505233036 | 11 | 0 | 0.0 | 0.0 | 0.05 | 2.95 | 0.00 | 91 | 1001.1 |
| 20260505232536 | 11 | 0 | 0.0 | 0.0 | 0.10 | 2.95 | 0.00 | 91 | 1001.2 |
| 20260505232035 | 11 | 292 | 0.0 | 0.0 | 0.10 | 2.95 | 0.00 | 91 | 1001.2 |
| 20260505231535 | 11 | 292 | 0.0 | 0.0 | 0.10 | 2.95 | 0.00 | 91 | 1001.1 |
| 20260505231035 | 11 | 292 | 0.0 | 0.0 | 0.05 | 2.90 | 0.00 | 91 | 1001.2 |
| 20260505230535 | 11 | 292 | 0.0 | 0.0 | 0.05 | 2.90 | 0.00 | 91 | 1001.2 |
| 20260505230034 | 11 | 315 | 0.0 | 0.0 | 0.10 | 2.90 | 0.00 | 91 | 1001.2 |
| 20260505225534 | 11 | 292 | 0.0 | 0.0 | 0.10 | 2.90 | 0.00 | 91 | 1001.2 |
| 20260505225034 | 11 | 270 | 0.0 | 0.0 | 0.10 | 2.90 | 0.00 | 91 | 1001.3 |
| 20260505224533 | 11 | 112 | 0.0 | 0.0 | 0.15 | 2.90 | 0.00 | 91 | 1001.3 |
| 20260505224033 | 12 | 112 | 0.0 | 0.0 | 0.15 | 2.90 | 0.00 | 91 | 1001.2 |
| 20260505223533 | 12 | 112 | 0.0 | 0.0 | 0.15 | 2.90 | 0.00 | 91 | 1001.2 |
| 20260505223033 | 12 | 112 | 0.0 | 0.0 | 0.15 | 2.84 | 0.00 | 91 | 1001.1 |
| 20260505222532 | 12 | 112 | 0.0 | 0.0 | 0.15 | 2.84 | 0.00 | 91 | 1001.3 |
| 20260505222032 | 12 | 112 | 0.0 | 0.0 | 0.15 | 2.84 | 0.00 | 91 | 1001.4 |
| 20260505221532 | 12 | 112 | 0.0 | 0.0 | 0.20 | 2.84 | 0.00 | 91 | 1001.4 |
| 20260505221031 | 12 | 112 | 0.0 | 0.0 | 0.25 | 2.84 | 0.00 | 90 | 1001.5 |
| 20260505220531 | 12 | 112 | 0.0 | 0.0 | 0.25 | 2.79 | 0.00 | 90 | 1001.5 |
| 20260505220031 | 12 | 112 | 0.0 | 0.0 | 0.25 | 2.79 | 0.00 | 90 | 1001.6 |
| 20260505215531 | 12 | 247 | 0.0 | 0.0 | 0.30 | 2.79 | 0.00 | 90 | 1001.6 |
| 20260505215030 | 12 | 337 | 0.0 | 0.0 | 0.30 | 2.79 | 0.00 | 90 | 1001.5 |
| 20260505214530 | 12 | 67 | 0.0 | 0.0 | 0.30 | 2.74 | 0.00 | 90 | 1001.7 |
| 20260505214030 | 12 | 67 | 0.0 | 0.0 | 0.30 | 2.74 | 0.00 | 90 | 1001.7 |
| 20260505213529 | 12 | 45 | 0.0 | 0.0 | 0.36 | 2.74 | 0.00 | 90 | 1001.7 |
| 20260505213029 | 12 | 45 | 0.0 | 0.0 | 0.41 | 2.69 | 0.00 | 90 | 1001.8 |
| 20260505212529 | 12 | 90 | 0.0 | 0.0 | 0.41 | 2.69 | 0.00 | 90 | 1001.7 |
| 20260505212029 | 12 | 225 | 0.0 | 0.0 | 0.36 | 2.62 | 0.00 | 90 | 1001.8 |
| 20260505211528 | 12 | 225 | 0.0 | 0.0 | 0.36 | 2.62 | 0.00 | 90 | 1001.8 |
| 20260505211028 | 12 | 225 | 0.0 | 0.0 | 0.41 | 2.57 | 0.00 | 90 | 1001.9 |
| 20260505210528 | 12 | 225 | 0.0 | 0.0 | 0.46 | 2.51 | 0.00 | 90 | 1001.9 |
| 20260505210027 | 12 | 247 | 0.0 | 0.0 | 0.51 | 2.51 | 0.00 | 90 | 1001.9 |
| 20260505205527 | 12 | 225 | 0.0 | 0.0 | 1.02 | 2.46 | 0.00 | 90 | 1001.9 |
| 20260505205027 | 12 | 247 | 0.0 | 0.0 | 1.45 | 2.46 | 0.00 | 90 | 1001.9 |
| 20260505204527 | 12 | 270 | 0.0 | 0.0 | 1.70 | 2.41 | 0.00 | 89 | 1001.8 |
| 20260505204026 | 12 | 270 | 0.0 | 0.0 | 1.80 | 2.36 | 0.00 | 89 | 1001.7 |
| 20260505203526 | 12 | 202 | 0.0 | 0.0 | 1.96 | 2.36 | 0.00 | 89 | 1001.6 |
| 20260505203026 | 12 | 180 | 0.0 | 0.0 | 1.91 | 2.26 | 0.00 | 89 | 1001.5 |
| 20260505202525 | 12 | 67 | 0.0 | 0.0 | 1.91 | 2.26 | 0.00 | 89 | 1001.4 |
| 20260505202025 | 12 | 67 | 0.0 | 0.0 | 1.91 | 2.26 | 0.00 | 88 | 1001.5 |
| 20260505201525 | 12 | 67 | 0.0 | 0.0 | 2.06 | 2.26 | 0.00 | 88 | 1001.5 |
| 20260505201025 | 12 | 67 | 0.0 | 0.0 | 1.91 | 2.06 | 0.00 | 88 | 1001.5 |
| 20260505200524 | 12 | 67 | 0.0 | 0.0 | 1.85 | 2.01 | 0.00 | 88 | 1001.6 |
| 20260505200024 | 13 | 270 | 0.0 | 0.0 | 1.75 | 1.91 | 0.00 | 88 | 1001.5 |
| 20260505195524 | 13 | 67 | 0.0 | 0.0 | 1.12 | 1.22 | 0.00 | 88 | 1001.8 |
| 20260505195023 | 13 | 270 | 0.0 | 0.0 | 0.76 | 0.86 | 0.00 | 88 | 1001.7 |
| 20260505194523 | 13 | 270 | 0.0 | 0.0 | 0.51 | 0.61 | 0.00 | 88 | 1001.7 |
| 20260505194023 | 13 | 270 | 0.0 | 0.0 | 0.36 | 0.46 | 0.00 | 87 | 1001.7 |
| 20260505193522 | 13 | 270 | 0.0 | 0.0 | 0.30 | 0.41 | 0.00 | 87 | 1001.6 |
| 20260505193022 | 13 | 247 | 0.0 | 0.0 | 0.25 | 0.36 | 0.00 | 87 | 1001.7 |
| 20260505192522 | 13 | 270 | 0.0 | 0.0 | 0.25 | 0.36 | 0.00 | 87 | 1001.7 |
| 20260505192022 | 13 | 270 | 0.0 | 0.0 | 0.10 | 0.20 | 0.00 | 86 | 1001.7 |
| 20260505191521 | 13 | 270 | 0.0 | 0.0 | 0.10 | 0.20 | 0.00 | 86 | 1001.9 |
| 20260505191021 | 13 | 247 | 0.0 | 0.0 | 0.10 | 0.15 | 0.00 | 86 | 1001.9 |
| 20260505190521 | 13 | 247 | 0.0 | 0.0 | 0.10 | 0.15 | 0.00 | 86 | 1001.8 |
| 20260505190021 | 13 | 247 | 0.0 | 0.0 | 0.10 | 0.15 | 0.00 | 86 | 1001.9 |
| 20260505185520 | 13 | 247 | 0.0 | 0.0 | 0.05 | 0.10 | 0.00 | 85 | 1001.8 |
| 20260505185020 | 13 | 247 | 0.0 | 0.0 | 0.05 | 0.10 | 0.00 | 85 | 1001.7 |
| 20260505184520 | 13 | 247 | 0.0 | 0.0 | 0.05 | 0.10 | 0.00 | 85 | 1001.5 |
| 20260505184019 | 13 | 247 | 0.0 | 0.0 | 0.05 | 0.10 | 0.00 | 84 | 1001.5 |
| 20260505183519 | 13 | 247 | 0.0 | 0.0 | 0.05 | 0.10 | 0.00 | 84 | 1001.6 |
| 20260505183019 | 13 | 247 | 0.0 | 0.0 | 0.05 | 0.10 | 0.00 | 84 | 1001.6 |
| 20260505182518 | 13 | 225 | 0.0 | 0.0 | 0.05 | 0.10 | 0.00 | 83 | 1001.6 |
| 20260505182018 | 13 | 225 | 0.0 | 0.0 | 0.05 | 0.10 | 0.00 | 83 | 1001.7 |
| 20260505181518 | 13 | 225 | 0.0 | 0.0 | 0.05 | 0.10 | 0.00 | 83 | 1001.6 |
| 20260505181018 | 13 | 225 | 0.0 | 0.0 | 0.00 | 0.05 | 0.00 | 82 | 1001.6 |
| 20260505180517 | 13 | 157 | 0.0 | 0.0 | 0.00 | 0.05 | 0.00 | 81 | 1001.7 |
| 20260505180017 | 13 | 157 | 0.0 | 0.0 | 0.00 | 0.05 | 0.00 | 81 | 1001.7 |
| 20260505175517 | 14 | 157 | 0.0 | 0.0 | 0.00 | 0.10 | 0.00 | 81 | 1001.6 |
| 20260505175016 | 14 | 157 | 0.0 | 0.0 | 0.00 | 0.10 | 0.00 | 80 | 1001.5 |
| 20260505174516 | 14 | 157 | 0.0 | 0.0 | 0.00 | 0.10 | 0.00 | 80 | 1001.5 |
| 20260505174016 | 14 | 135 | 0.0 | 0.0 | 0.00 | 0.10 | 0.00 | 79 | 1001.6 |
| 20260505173516 | 14 | 45 | 0.0 | 0.0 | 0.00 | 0.10 | 0.00 | 79 | 1001.6 |
| 20260505173015 | 15 | 45 | 0.0 | 1.6 | 0.00 | 0.10 | 0.00 | 79 | 1001.7 |
| 20260505172515 | 15 | 90 | 0.0 | 0.0 | 0.00 | 0.10 | 0.00 | 78 | 1001.6 |
| 20260505172015 | 15 | 112 | 0.0 | 8.0 | 0.00 | 0.10 | 0.00 | 77 | 1001.7 |
| 20260505171514 | 15 | 67 | 8.0 | 8.0 | 0.00 | 0.10 | 0.00 | 77 | 1001.6 |
| 20260505171014 | 15 | 67 | 0.0 | 6.4 | 0.00 | 0.10 | 0.00 | 75 | 1001.6 |
| 20260505170514 | 16 | 45 | 6.4 | 6.4 | 0.00 | 0.10 | 0.00 | 74 | 1001.5 |
| 20260505170014 | 16 | 67 | 0.0 | 8.0 | 0.00 | 0.10 | 0.00 | 74 | 1001.4 |